EW6762 Weather Reports


Display with metric or nautical units.
time (UTC)temp
F
wind
direction
speed
MPH
gust
MPH
rain 1hr
in
rain 24hr
in
rain mn
in
humidity
%
barometer
mb
20260831121317 76 268 4.0 7.0 0.00 0.00 0.00 96 1020.9
20260831120314 76 278 3.0 4.0 0.00 0.00 0.00 96 1020.8
20260831115317 76 277 2.0 4.0 0.00 0.00 0.00 96 1020.8
20260831114313 75 270 2.0 6.0 0.00 0.00 0.00 96 1020.8
20260831113309 75 271 2.0 4.0 0.00 0.00 0.00 95 1020.8
20260831112312 75 310 2.0 5.0 0.00 0.00 0.00 95 1020.8
20260831111309 75 283 3.0 6.0 0.00 0.00 0.00 95 1020.9
20260831110334 75 283 3.0 6.0 0.00 0.00 0.00 95 1020.7
20260831105310 75 244 2.0 4.0 0.00 0.00 0.00 95 1020.6
20260831104326 75 246 3.0 4.0 0.00 0.00 0.00 95 1020.6
20260831103324 75 288 2.0 4.0 0.00 0.00 0.00 95 1020.5
20260831102318 74 317 1.0 2.0 0.00 0.00 0.00 95 1020.5
20260831101341 75 329 1.0 2.0 0.00 0.00 0.00 95 1020.4
20260831100316 75 124 0.0 3.0 0.00 0.00 0.00 94 1020.4
20260831095310 75 180 0.0 2.0 0.00 0.00 0.00 94 1020.4
20260831094319 75 248 0.0 2.0 0.00 0.00 0.00 95 1020.4
20260831093316 75 281 1.0 3.0 0.00 0.00 0.00 95 1020.4
20260831092321 75 267 1.0 3.0 0.00 0.00 0.00 95 1020.4
20260831091316 75 275 1.0 3.0 0.00 0.00 0.00 95 1020.4
20260831090311 75 279 1.0 2.0 0.00 0.00 0.00 95 1020.3
20260831085313 75 238 1.0 2.0 0.00 0.00 0.00 95 1020.4
20260831084308 75 278 1.0 2.0 0.00 0.00 0.00 95 1020.4
20260831083331 75 301 1.0 2.0 0.00 0.00 0.00 95 1020.6
20260831082328 75 301 1.0 2.0 0.00 0.00 0.00 95 1020.6
20260831081323 75 301 0.0 2.0 0.00 0.00 0.00 94 1020.7
20260831080326 75 302 1.0 2.0 0.00 0.00 0.00 94 1020.6
20260831075321 76 302 1.0 2.0 0.00 0.00 0.00 94 1020.5
20260831074345 76 213 1.0 2.0 0.00 0.00 0.00 94 1020.5
20260831073320 76 196 0.0 1.0 0.00 0.00 0.00 94 1020.5
20260831072316 76 211 0.0 2.0 0.00 0.00 0.00 94 1020.5
20260831071341 76 211 1.0 2.0 0.00 0.00 0.00 94 1020.5
20260831070324 76 211 1.0 2.0 0.00 0.00 0.00 94 1020.5
20260831065317 76 63 1.0 3.0 0.00 0.00 0.00 94 1020.6
20260831064311 76 318 1.0 2.0 0.00 0.00 0.00 94 1020.8
20260831063315 77 240 1.0 3.0 0.00 0.00 0.00 94 1020.7
20260831062309 77 210 2.0 4.0 0.00 0.00 0.00 94 1020.6
20260831061329 77 195 2.0 3.0 0.00 0.00 0.00 94 1020.8
20260831060323 76 235 2.0 4.0 0.00 0.00 0.00 94 1020.8
20260831055318 77 178 2.0 5.0 0.00 0.00 0.00 94 1021.0
20260831054318 77 141 3.0 6.0 0.00 0.00 0.00 94 1021.0
20260831053309 77 182 3.0 4.0 0.00 0.00 0.00 93 1021.1
20260831052333 77 175 2.0 5.0 0.00 0.00 0.00 93 1021.1
20260831051326 77 62 1.0 3.0 0.00 0.00 0.00 93 1021.2
20260831050329 77 92 1.0 3.0 0.00 0.00 0.00 92 1021.2
20260831045324 77 96 1.0 2.0 0.00 0.00 0.00 92 1021.2
20260831044318 77 180 2.0 5.0 0.00 0.00 0.00 92 1021.1
20260831043325 78 167 1.0 4.0 0.00 0.00 0.00 92 1021.2
20260831042317 78 180 2.0 3.0 0.00 0.00 0.00 92 1021.1
20260831041312 78 167 0.0 2.0 0.00 0.00 0.00 92 1021.2
20260831040312 78 146 2.0 5.0 0.00 0.00 0.00 91 1021.2
20260831035326 78 186 0.0 3.0 0.00 0.00 0.00 90 1021.2
20260831034328 78 267 0.0 1.0 0.00 0.00 0.00 90 1021.3
20260831033325 79 266 0.0 2.0 0.00 0.00 0.00 90 1021.1
20260831032323 79 258 1.0 2.0 0.00 0.00 0.00 90 1021.1
20260831031323 79 265 2.0 2.0 0.00 0.00 0.00 90 1021.1
20260831030319 79 254 0.0 2.0 0.00 0.00 0.00 90 1021.2
20260831025323 79 201 1.0 1.0 0.00 0.00 0.00 89 1021.1
20260831024318 79 201 0.0 1.0 0.00 0.00 0.00 89 1021.1
20260831023317 80 201 0.0 0.0 0.00 0.00 0.00 89 1021.1
20260831022340 80 201 0.0 3.0 0.00 0.00 0.00 89 1021.0
20260831021323 80 187 2.0 3.0 0.00 0.00 0.00 88 1021.0
20260831020319 80 175 1.0 3.0 0.00 0.00 0.00 88 1021.0
20260831015344 80 204 2.0 3.0 0.00 0.00 0.00 88 1021.0
20260831014323 80 140 2.0 5.0 0.00 0.00 0.00 88 1021.0
20260831013348 81 80 1.0 3.0 0.00 0.00 0.00 87 1020.9
20260831012323 81 169 2.0 6.0 0.00 0.00 0.00 86 1020.9
20260831011321 81 136 2.0 3.0 0.00 0.00 0.00 86 1020.8
20260831010323 81 32 1.0 1.0 0.00 0.00 0.00 84 1020.7
20260831005319 82 38 0.0 1.0 0.00 0.00 0.00 84 1020.7
20260831004325 82 348 0.0 1.0 0.00 0.00 0.00 84 1020.7
20260831003342 82 348 1.0 2.0 0.00 0.00 0.00 84 1020.7
20260831002345 82 348 1.0 2.0 0.00 0.00 0.00 83 1020.7
20260831001321 83 348 1.0 2.0 0.00 0.00 0.00 83 1020.7
20260831000325 83 338 0.0 1.0 0.00 0.00 0.00 83 1020.7
20260830235322 84 339 1.0 2.0 0.00 0.00 0.00 82 1020.6
20260830234321 84 29 0.0 3.0 0.00 0.00 0.00 82 1020.7
20260830233322 85 67 1.0 3.0 0.00 0.00 0.00 81 1020.7
20260830232339 85 63 2.0 3.0 0.00 0.00 0.00 81 1020.9
20260830231335 85 88 2.0 4.0 0.00 0.00 0.00 80 1020.8
20260830230311 86 25 2.0 3.0 0.00 0.00 0.00 79 1020.9
20260830225335 86 62 2.0 3.0 0.00 0.00 0.00 78 1021.0
20260830224311 86 9 1.0 4.0 0.00 0.00 0.00 78 1020.9
20260830223317 86 67 2.0 4.0 0.00 0.00 0.00 79 1020.9
20260830222314 86 67 2.0 4.0 0.00 0.00 0.00 78 1020.9
20260830221313 86 91 2.0 4.0 0.00 0.00 0.00 78 1020.8
20260830220310 86 59 2.0 5.0 0.00 0.00 0.00 77 1020.9
20260830215334 87 61 1.0 5.0 0.00 0.00 0.00 75 1021.1
20260830214310 87 84 2.0 7.0 0.00 0.00 0.00 75 1021.0
20260830213325 87 116 3.0 7.0 0.00 0.00 0.00 75 1020.9
20260830212327 87 109 3.0 7.0 0.00 0.00 0.00 74 1020.8
20260830211325 88 115 3.0 8.0 0.00 0.00 0.00 73 1020.7
20260830210321 89 117 5.0 8.0 0.00 0.00 0.00 73 1020.6
20260830205320 89 115 3.0 6.0 0.00 0.00 0.00 74 1020.6
20260830204313 89 135 2.0 6.0 0.00 0.00 0.00 71 1020.9
20260830203335 89 128 3.0 8.0 0.00 0.00 0.00 71 1020.8
20260830202326 90 58 4.0 6.0 0.00 0.00 0.00 69 1021.0
20260830201330 90 42 3.0 8.0 0.00 0.00 0.00 71 1021.1
20260830200341 90 49 3.0 8.0 0.00 0.00 0.00 71 1021.2
20260830195322 89 58 2.0 6.0 0.00 0.00 0.00 71 1021.3
20260830194314 89 5 3.0 8.0 0.00 0.00 0.00 72 1021.5
20260830193333 89 46 2.0 6.0 0.00 0.00 0.00 72 1021.7
20260830192328 89 31 3.0 4.0 0.00 0.00 0.00 73 1021.7
20260830191327 88 76 1.0 4.0 0.00 0.00 0.00 71 1021.7
20260830190324 88 9 2.0 5.0 0.00 0.00 0.00 72 1021.8
20260830185345 88 329 3.0 5.0 0.00 0.00 0.00 73 1021.9
20260830184319 88 309 2.0 5.0 0.00 0.00 0.00 73 1022.0
20260830183323 88 24 3.0 8.0 0.00 0.00 0.00 71 1022.1
20260830182334 88 284 3.0 6.0 0.00 0.00 0.00 73 1022.2
20260830181312 88 307 2.0 4.0 0.00 0.00 0.00 72 1022.3
20260830180321 87 293 2.0 5.0 0.00 0.00 0.00 72 1022.4
20260830175324 88 284 2.0 6.0 0.00 0.00 0.00 72 1022.6
20260830174317 88 35 2.0 4.0 0.00 0.00 0.00 73 1022.7
20260830173335 87 331 1.0 5.0 0.00 0.00 0.00 74 1022.8
20260830172311 87 151 2.0 5.0 0.00 0.00 0.00 74 1022.8
20260830171330 87 30 1.0 4.0 0.00 0.00 0.00 75 1022.8
20260830170325 86 355 1.0 4.0 0.00 0.00 0.00 77 1023.0
20260830165317 87 115 2.0 6.0 0.00 0.00 0.00 77 1023.2
20260830164318 86 100 3.0 6.0 0.00 0.00 0.00 76 1023.3
20260830163314 86 15 1.0 7.0 0.00 0.00 0.00 78 1023.2
20260830162310 85 50 2.0 4.0 0.00 0.00 0.00 80 1023.2
20260830161324 85 317 3.0 4.0 0.00 0.00 0.00 79 1023.3
20260830160320 84 65 3.0 5.0 0.00 0.00 0.00 82 1023.4
20260830155355 83 332 2.0 5.0 0.00 0.00 0.00 83 1023.6
20260830154327 83 360 2.0 6.0 0.00 0.00 0.00 83 1023.7
20260830153325 83 80 2.0 4.0 0.00 0.00 0.00 83 1023.8
20260830152317 82 53 3.0 6.0 0.00 0.00 0.00 84 1023.8
20260830151310 82 351 1.0 5.0 0.00 0.00 0.00 85 1023.9
20260830150310 81 23 2.0 4.0 0.00 0.00 0.00 86 1023.8
20260830145334 81 309 4.0 6.0 0.00 0.00 0.00 85 1023.8
20260830144311 82 360 2.0 5.0 0.00 0.00 0.00 85 1023.8
20260830143324 81 290 2.0 7.0 0.00 0.00 0.00 86 1023.7
20260830142320 80 24 4.0 5.0 0.00 0.00 0.00 89 1023.7
20260830141308 79 13 3.0 5.0 0.00 0.00 0.00 90 1023.6
20260830140324 78 360 3.0 5.0 0.00 0.00 0.00 91 1023.5
20260830135335 77 347 3.0 5.0 0.00 0.00 0.00 92 1023.6
20260830134313 77 355 1.0 4.0 0.00 0.00 0.00 93 1023.8
20260830133326 77 325 2.0 6.0 0.00 0.00 0.00 93 1023.9
20260830132327 76 47 3.0 5.0 0.00 0.00 0.00 94 1023.9
20260830131321 76 12 2.0 3.0 0.00 0.00 0.00 94 1024.0
20260830130323 76 44 2.0 6.0 0.00 0.00 0.00 94 1024.0
20260830125317 76 71 3.0 6.0 0.00 0.00 0.00 95 1024.0
20260830124338 75 342 1.0 7.0 0.00 0.00 0.00 95 1023.9
20260830123312 75 52 3.0 4.0 0.00 0.00 0.00 95 1023.8
20260830122309 75 72 2.0 4.0 0.00 0.00 0.00 95 1023.7